Find Starlink 30216

NORAD ID: 57451 Int'l Des: 2023-105 Owner: SPXS Country: US Constellation: starlink operational
LEOCIRCULAR

リアルタイム位置

3D地球を読み込み中...

Starlink 30216について

説明を読み込み中...

次回通過

Passes for default location (London). Set your location on the main map for personalized predictions.

高度履歴

Loading altitude history...

軌道要素

1 57451U 23105X 26125.48900448 .00000484 00000-0 27163-4 0 9995
2 57451 43.0024 298.6518 0003041 302.9288 57.1271 15.27569126154115
Epoch: May 5, 2026 • Age: 11 hours

現在のステータス

高度 482.6 km
速度 7.63 km/s
衛星直下点 -7.25°S, 84.35°E
打ち上げ日 Jul 24, 2023
運用期間 2.7 years
タイプ internet

技術仕様

分類 Payload
質量 730.00 kg
乾燥質量 700.00 kg
総質量 730.00 kg
長さ 0.30 m
直径 4.10 m
スパン 29.00 m
形状 Box + pan
製造者 SPXS
バスタイプ Starlink V2M
フェーズステータス In Orbit
所有者/国 SPXS/US

Most Searched